STARLINK-31280, 58843

Orbit data source: Space-Track

STARLINK-31280, 58843 is a payload satellite owned by SpaceX/Seattle (US) in LEO that was launched on Wed, 24 Jan 2024 UTC via an FALCON 9 launch vehicle from the Air Force Western Test Range (AFWTR). Payload-class satellites include a variety of spacecraft equipped with specific instruments for various scientific and technological missions. These include communications satellites like Starlink; space stations such as the ISS; scientific satellites like the Hubble; Earth observation satellites from companies like Planet Labs, Umbra, and HawkEye 360; GPS; miniature CubeSats for education and research; and military/defense satellites.

Loading next visibility...
Identifier
58843, 2024-017T
Orbit
LEO
Country
Flag of USUS
Related business
Manufacturer
SpaceX/Seattle
Mission
Operational Commercial Communications
Bus & Motor
STARLINK V2M, Unknown motor
Mass
730 kg wet, ~700 kg dry
Launch date (UTC)
2024-01-24 (2 years ago)
Launch vehicle
FALCON 9
Launch site
Air Force Western Test Range (AFWTR)
Object type
Payload
Rocket body
Debris
Shape & HBR
Box + 2 Pan, 17.7 m
Radar Cross Section
33.884 m², Large (>1 m²)

Expand to show TLE details & history
Last TLE update: 2 days ago

TLE from 2 days ago
0 STARLINK-31280
1 58843U 24017T   26170.97091148  .00005912  00000-0  21159-3 0  9995
2 58843  53.1600  89.3958 0001442  85.1146 275.0019 15.30197344135711
Epoch: 2026-06-19T23:18Z
TLE epoch observation values (Epoch: 2026-06-19T23:18:06.751Z)
Latitude
-0.00007°
Longitude
-168.32462°
Altitude
476.037 km
Speed
7.629 km/s
True Right ascension
05h 57m 34s
True Declination
0° 00' 00"
Sunlit
Object was in daylight at epoch
Visualization orbit readout
Latitude
Unknown
Longitude
Unknown
Altitude
Unknown
Speed
Unknown
Apparent Right ascension
Unknown
Apparent Declination
Unknown
Sunlit
N/A
Visualization observer readout
Local Sidereal Time
21:28:41
Azimuth
Unknown
Elevation
Unknown
Doppler factor
Unknown
Orbital elements
Apogee altitude
476.468 km
Perigee altitude
474.491 km
Semi-major axis
6,853.616 km
Eccentricity
0.00014
Inclination
53.16°
RAAN
89.3958°
Arg. of periapsis
85.1146°
True anomaly
274.98544°
Mean anomaly
275.0019°
Eccentric anomaly
274.99367°
Mean motion
3.82528 °/min
Orbital period
94.11 mins
BSTAR
0.00021159
Loading maneuver chart data...
Computing Atmospheric mass density...
Loading historical data...
Loading historical data...
Loading historical data...
Loading historical data...
Loading historical data...
Loading historical data...
Loading historical data...

Documentation

Showing up to 5 results
|